Regional Weather Roundup
Issued by NWS

Home | Current Version | Previous Version | Graphics & Text | Print | Product List | Glossary Off
Versions: 1 2 3 4 5 6 7 8 9 10 11 12 13 14 15 16 17 18 19 20 21 22 23 24 25 26 27 28 29 30 31 32 33 34 35 36 37 38 39 40 41 42 43 44 45 46 47 48 49 50

000
ASUS43 KMKX 020159
RWRWI

WISCONSIN REGIONAL WEATHER ROUNDUP
NATIONAL WEATHER SERVICE MILWAUKEE/SULLIVAN WI
800 PM CST SUN MAR 01 2015

NOTE: "FAIR" INDICATES FEW OR NO CLOUDS BELOW 12,000 FEET WITH NO
SIGNIFICANT WEATHER AND/OR OBSTRUCTIONS TO VISIBILITY.

WIZ001-002-006>008-014>016-023>028-020300-
NORTHWEST WISCONSIN

CITY           SKY/WX    TMP DP  RH WIND       PRES   REMARKS
SUPERIOR ARPT  MOCLDY    22  13  67 W12G18    30.21R WCI  10
ASHLAND        CLOUDY    22   7  52 W8        30.17R WCI  12
HAYWARD        MOCLDY    20   6  55 SW6       30.18R WCI  12
SIREN          PTCLDY    22  10  61 NW12G18   30.23R WCI  10
CUMBERLAND     CLOUDY    19   7  58 W8        30.20R WCI   9
RICE LAKE      MOCLDY    18   9  66 W3        30.23R
CHETEK         PTCLDY    20  11  66 W5        30.22R WCI  14
LADYSMITH      PTCLDY    19   6  57 W8        30.20R WCI   9
EAU CLAIRE     NOT AVBL
MENOMONIE      PTCLDY    21   9  58 CALM      30.25R
NEW RICHMOND   CLOUDY    22  12  66 W8        30.26R WCI  12
OSCEOLA        MOCLDY    24  10  56 W8        30.28R WCI  15
$$

WIZ003>005-009-010-017-018-020300-
NORTH CENTRAL WISCONSIN

CITY           SKY/WX    TMP DP  RH WIND       PRES   REMARKS
MANITOWISH WTR MOCLDY    17   1  50 W8        30.09R WCI   7
ARBOR VITAE    FAIR      19   5  54 W7        30.10R WCI  10
WOODRUFF       FAIR      19   5  54 W7        30.10R WCI  10
RHINELANDER    CLEAR     14   3  61 W14       30.10R WCI  -1
EAGLE RIVER    CLEAR     18   1  47 W10       30.07R WCI   6
LAND O LAKES   PTCLDY    15   4  61 W5        30.07R WCI   8
PHILLIPS       CLOUDY    17   4  57 W3        30.14R
TOMAHAWK       CLEAR     17   3  55 W7        30.13R WCI   7
MEDFORD        CLEAR     17   4  57 W8        30.16R WCI   6
MERRILL        CLEAR     17   4  55 W8        30.15R WCI   7
$$

WIZ029-030-035-036-043>047-020300-
CENTRAL WISCONSIN

CITY           SKY/WX    TMP DP  RH WIND       PRES   REMARKS
WAUSAU         CLEAR     17   5  59 W12       30.16R WCI   4
MOSINEE        NOT AVBL
MARSHFIELD     CLEAR     17   5  59 W9        30.20R WCI   6
STEVENS POINT  CLEAR     18   5  56 W7        30.19R WCI   9
WAUPACA        CLEAR     20  10  67 W8        30.21R WCI  10
WAUTOMA        NOT AVBL
WISC RAPIDS    CLEAR     19   4  51 W9        30.24R WCI   8
CAMP DOUGLAS   NOT AVBL
$$

WIZ011>013-019>022-031-037>040-048>050-020300-
NORTHEAST WISCONSIN

CITY           SKY/WX    TMP DP  RH WIND       PRES   REMARKS
ANTIGO         CLEAR     13   6  72 W8        30.12R WCI   2
SHAWANO        CLEAR     20  10  66 SW5       30.18R WCI  13
OCONTO         CLEAR     17   9  72 W3        30.18R
STURGEON BAY   CLEAR     19   9  63 W13       30.18R WCI   7
GREEN BAY      CLEAR     19  12  74 SW6       30.19R WCI  11
MANITOWOC      NOT AVBL
APPLETON       PTCLDY   N/A N/A N/A W9        30.19R
CLINTONVILLE   CLEAR     19   9  63 W7        30.19R WCI  10
OSHKOSH        CLEAR     21  10  62 W8        30.20R WCI  11
$$

WIZ032>034-041-042-053>061-020300-
SOUTHWEST WISCONSIN

CITY           SKY/WX    TMP DP  RH WIND       PRES   REMARKS
LA CROSSE      CLEAR     19   7  59 SW5       30.31R WCI  12
SPARTA         CLEAR     19   7  60 W5        30.28S WCI  12
VIROQUA        CLEAR     16   7  67 W7        30.26R WCI   6
BOSCOBEL       CLEAR     19   6  57 SW7       30.34R WCI  10
PRAIRIE DU CHI CLEAR     19   7  59 CALM      30.34R
PLATTEVILLE    CLEAR     17   8  70 W12       30.31R WCI   4
$$

WIZ056-057-062-063-064-067-068-020300-
SOUTH CENTRAL WISCONSIN

CITY           SKY/WX    TMP DP  RH WIND       PRES   REMARKS
REEDSBURG      CLEAR     20   7  57 W9        30.26R WCI   9
BARABOO/DELLS  CLEAR     20   5  52 W9G18     30.25R WCI   9
LONE ROCK      NOT AVBL
MINERAL POINT  CLEAR     21   9  58 W14       30.28R WCI   8
MADISON        CLEAR     22   8  55 W10G18    30.27R WCI  11
MIDDLETON      CLEAR     23   9  55 W14G22    30.26R WCI  10
WATERTOWN      CLEAR     22  15  71 W9        30.23R WCI  12
MONROE         CLEAR     21  10  63 W17G26    30.27R WCI   7
JANESVILLE     CLEAR     23  12  63 W17       30.28R WCI   9
$$

WIZ051-052-058>065-066-070>072-020300-
SOUTHEAST WISCONSIN

CITY           SKY/WX    TMP DP  RH WIND       PRES   REMARKS
MILWAUKEE      CLEAR     23  13  65 SW10      30.23R WCI  12
WAUKESHA       NOT AVBL
MILWAUKEE/TIMM CLEAR     23  14  68 W10       30.22S WCI  12
RACINE         CLEAR     21  13  71 SW10      30.24F WCI  10
BURLINGTON     CLEAR     18  13  81 SW9       30.24R WCI   6
KENOSHA        CLEAR     20  13  74 SW14      30.24R WCI   7
FOND DU LAC    CLEAR     21  11  65 W7        30.21R WCI  12
SHEBOYGAN      CLEAR     22  12  65 W12       30.20R WCI  10
WEST BEND      CLOUDY    25  14  63 W10       30.20R WCI  15
JUNEAU         CLEAR     23  11  61 W12       30.23R WCI  11
$$

LSZ147-162-020300-
LAKE SUPERIOR

STATION/POSITION TIME  TEMP    WIND        PRES    WAVE
                       AIR SEA DIR/SP/G            HT/PER
                 (UTC) (F)     (DEG/KT/KT) (MB)    (FT/S)
DEVILS ISLAND    0100   24     280/ 23/ 28 1021.4R
PORT WING        0123   25     280/ 16/ 25 1021.7R
SAXON HARBOR     0100   24     250/  5/ 11 1021.0R
$$

LMZ867-665-643>646-020300-
LAKE MICHIGAN

STATION/POSITION TIME  TEMP    WIND        PRES    WAVE
                       AIR SEA DIR/SP/G            HT/PER
                 (UTC) (F)     (DEG/KT/KT) (MB)    (FT/S)
NORTHPORT PIER   0101   22     270/  9/ 20 1020.3R
SISTER BAY       0043   21     290/ 14/ 17   N/A
KEWAUNEE LAKESHO 0100   23     280/ 12/ 17 1020.6R
SHEBOYGAN LAKESH 0100   27     260/  9/ 11 1023.5R
PORT WASHINGTON  0100   25     250/  4/  8 1023.4R
MILWAUKEE LAKESH 0100   26     250/ 12/ 16   N/A
KENOSHA   LAKESH 0100   24     230/  7/ 16 1024.0S
$$

TC  - TEMPERATURE IN CELSIUS
VSB - VISIBILITY IN STATUTE MILES
WCI - WIND CHILL INDEX
HX  - HEAT INDEX



USA.gov is the U.S. government's official web portal to all federal, state and local government web resources and services.